Location: Berg
(47.2344°N, 9.5296°E)
Time: 05:59:55
(UTC+00:00)

BEESAT 2 - Pass Details

Date: 01 December 2021
Orbit: 498 x 513 km, 64.9° (Epoch: 19 January)

Event Time Altitude Azimuth Distance (km) Brightness Sun altitude
Exits shadow 05:05:55 10° 349° (N) 1,733 ? -16.7°
Maximum altitude 05:08:43 19° 36° (NE) 1,268 ? -16.2°
Drops below altitude 10° 05:11:37 10° 84° (E) 1,747 ? -15.7°
Sets 05:14:15 0° 102° (ESE) 2,629 ? -15.3°
